This demonstration page uses our WeatherBlox Daily Observations layout. Learn more.

Left ArrowRight Arrow

41.86663, -103.66717

Hourly Observations for September 19, 2020

Temp ( °F °C ) Dew Point ( °F °C ) Humidity (%) Winds ( mph kmh ) Pressure ( in mb ) Visibility ( mi km ) Precip ( " mm )
12:53 am 00:53 Clear 59 15 50 10 72 72 ESE 12 19 29.93 1014 10 16.0934 0 0
1:53 am 01:53 Clear 57 13.9 48 8.9 72 72 E 5 7 29.91 1013 10 16.0934 0 0
2:53 am 02:53 Clear 58 14.4 46 7.8 65 65 ENE 7 11 29.88 1012 10 16.0934 0 0
3:53 am 03:53 Clear 56 13.3 45 7.2 67 67 SSE 3 6 29.88 1012 10 16.0934 0 0
4:53 am 04:53 Clear 52 11.1 44 6.7 75 75 ESE 9 15 29.88 1012 10 16.0934 0 0
5:53 am 05:53 Clear 51 10.6 46 7.8 83 83 ESE 7 11 29.89 1012 9 14.48406 0 0
6:53 am 06:53 Sunny 50 10 46 7.8 86 86 ESE 5 7 29.9 1012 7 11.26538 0 0
7:53 am 07:53 Hazy 53 11.7 47 8.3 80 80 E 7 11 29.9 1012 6 9.65604 0 0
8:53 am 08:53 Sunny 58 14.4 47 8.3 67 67 SE 7 11 29.89 1012 7 11.26538 0 0
9:53 am 09:53 Sunny 62 16.7 47 8.3 58 58 E 7 11 29.88 1012 7 11.26538 0 0
10:53 am 10:53 Sunny 67 19.4 48 8.9 51 51 VRB 3 6 29.88 1012 7 11.26538 0 0
11:53 am 11:53 Sunny 74 23.3 48 8.9 40 40 SSE 7 11 29.85 1011 7 11.26538 0 0
12:53 pm 12:53 Sunny 79 26.1 47 8.3 32 32 ESE 8 13 29.82 1010 8 12.87472 0 0
1:53 pm 13:53 Sunny 87 30.6 46 7.8 24 24 ESE 8 13 29.78 1008 8 12.87472 0 0
2:53 pm 14:53 Sunny 91 32.8 39 3.9 16 16 E 9 15 29.74 1007 9 14.48406 0 0
3:53 pm 15:53 Sunny 92 33.3 38 3.3 15 15 SE 13 20 29.73 1007 9 14.48406 0 0
4:53 pm 16:53 Sunny 87 30.6 41 5 20 20 SE 15 24 29.73 1007 9 14.48406 0 0
5:53 pm 17:53 Sunny 84 28.9 45 7.2 25 25 S 6 9 29.75 1007 9 14.48406 0 0
6:53 pm 18:53 Sunny 80 26.7 41 5 25 25 W 6 9 29.79 1009 10 16.0934 0 0
7:53 pm 19:53 Clear 75 23.9 42 5.6 31 31 Calm 29.79 1009 10 16.0934 0 0
8:53 pm 20:53 Clear 70 21.1 46 7.8 42 42 VRB 6 9 29.81 1009 10 16.0934 0 0
9:53 pm 21:53 Clear 74 23.3 43 6.1 33 33 W 13 20 29.84 1011 10 16.0934 0 0
10:53 pm 22:53 Clear 70 21.1 43 6.1 38 38 NW 14 22 29.84 1011 10 16.0934 0 0
11:53 pm 23:53 Mostly Cloudy 69 20.6 43 6.1 39 39 NW 14 22 29.85 1011 10 16.0934 0 0

Powered by AerisWeather